When you browse on this site, cookies collect data to enhance your experience and personalize the content and advertising you see.
Visit our Privacy Policy to learn more. By continuing to use the site, you agree to this use of cookies and data.
  • In Spain
  • List of Countries
  • For 7 days
  • Water Temperature
  • Weather Map
  • Weather Widgets
  • user-avatar
    Login

    Hourly Weather Kvandzhu

    Today, 25 May, Monday

    Time Temperature Precipitation Wind Pressure Humidity
    00:00 +15°C° 0 mm 0 mps 754 mmHg 94%
    01:00 +16°C° 0 mm 1 mps 754 mmHg 93%
    02:00 +15°C° 0 mm 1 mps 754 mmHg 93%
    03:00 +15°C° 0 mm 1 mps 754 mmHg 92%
    04:00 +14°C° 0 mm 0 mps 754 mmHg 92%
    05:00 +14°C° 0 mm 0 mps 755 mmHg 91%
    06:00 +16°C° 0 mm 1 mps 755 mmHg 84%
    07:00 +19°C° 0 mm 1 mps 755 mmHg 76%
    08:00 +21°C° 0 mm 1 mps 755 mmHg 67%
    09:00 +21°C° 0 mm 2 mps 755 mmHg 62%
    10:00 +23°C° 0 mm 2 mps 755 mmHg 58%
    11:00 +24°C° 0 mm 2 mps 755 mmHg 53%
    12:00 +24°C° 0 mm 3 mps 755 mmHg 54%
    13:00 +24°C° 0 mm 3 mps 754 mmHg 55%
    14:00 +24°C° 0 mm 3 mps 754 mmHg 56%
    15:00 +24°C° 0 mm 2 mps 754 mmHg 57%
    16:00 +23°C° 0 mm 2 mps 754 mmHg 59%
    17:00 +23°C° 0 mm 2 mps 754 mmHg 61%
    18:00 +20°C° 0 mm 2 mps 754 mmHg 68%
    19:00 +19°C° 0 mm 1 mps 754 mmHg 75%
    20:00 +16°C° 0 mm 1 mps 754 mmHg 81%
    21:00 +15°C° 0 mm 0 mps 754 mmHg 81%
    22:00 +14°C° 0 mm 0 mps 754 mmHg 80%
    23:00 +14°C° 0 mm 0 mps 754 mmHg 80%

    Tomorrow, 26 May, Tuesday

    Time Temperature Precipitation Wind Pressure Humidity
    00:00 +14°C° 0 mm 0 mps 754 mmHg 81%
    01:00 +14°C° 0 mm 0 mps 753 mmHg 81%
    02:00 +14°C° 0 mm 0 mps 753 mmHg 81%
    03:00 +14°C° 0 mm 0 mps 753 mmHg 81%
    04:00 +14°C° 0 mm 0 mps 753 mmHg 81%
    05:00 +14°C° 0 mm 0 mps 753 mmHg 81%
    06:00 +16°C° 0 mm 0 mps 753 mmHg 75%
    07:00 +20°C° 0 mm 1 mps 753 mmHg 68%
    08:00 +22°C° 0 mm 1 mps 753 mmHg 62%
    09:00 +23°C° 0 mm 1 mps 753 mmHg 56%
    10:00 +24°C° 0 mm 2 mps 753 mmHg 50%
    11:00 +26°C° 0 mm 3 mps 753 mmHg 45%
    12:00 +26°C° 0 mm 3 mps 752 mmHg 45%
    13:00 +26°C° 0 mm 4 mps 752 mmHg 45%
    14:00 +26°C° 0 mm 4 mps 751 mmHg 45%
    15:00 +25°C° 0 mm 4 mps 751 mmHg 50%
    16:00 +22°C° 0 mm 4 mps 751 mmHg 56%
    17:00 +21°C° 0 mm 4 mps 751 mmHg 62%
    18:00 +20°C° 0 mm 3 mps 752 mmHg 70%
    19:00 +18°C° 0 mm 2 mps 752 mmHg 78%
    20:00 +16°C° 0 mm 1 mps 752 mmHg 86%
    21:00 +16°C° 0 mm 1 mps 752 mmHg 89%
    22:00 +16°C° 0 mm 1 mps 752 mmHg 92%
    23:00 +16°C° 0 mm 1 mps 753 mmHg 95%

    Day after tomorrow, 27 May, Wednesday

    Time Temperature Precipitation Wind Pressure Humidity
    00:00 +16°C° 0 mm 2 mps 752 mmHg 95%
    01:00 +16°C° 0 mm 2 mps 752 mmHg 94%
    02:00 +17°C° 0 mm 2 mps 752 mmHg 93%
    03:00 +17°C° 0 mm 2 mps 752 mmHg 93%
    04:00 +17°C° 0 mm 2 mps 752 mmHg 94%
    05:00 +16°C° 0 mm 2 mps 753 mmHg 94%
    06:00 +18°C° 0 mm 2 mps 753 mmHg 83%
    07:00 +19°C° 0 mm 2 mps 753 mmHg 71%
    08:00 +21°C° 0 mm 2 mps 753 mmHg 60%
    09:00 +23°C° 0 mm 2 mps 753 mmHg 52%
    10:00 +25°C° 0 mm 3 mps 753 mmHg 44%
    11:00 +26°C° 0 mm 3 mps 753 mmHg 37%
    12:00 +27°C° 0 mm 3 mps 753 mmHg 37%
    13:00 +27°C° 0 mm 3 mps 752 mmHg 36%
    14:00 +27°C° 0 mm 3 mps 752 mmHg 36%
    15:00 +26°C° 0 mm 3 mps 752 mmHg 43%
    16:00 +24°C° 0 mm 3 mps 752 mmHg 49%
    17:00 +22°C° 0 mm 3 mps 752 mmHg 56%
    18:00 +20°C° 0 mm 2 mps 752 mmHg 64%
    19:00 +17°C° 0 mm 2 mps 753 mmHg 72%
    20:00 +15°C° 0 mm 1 mps 753 mmHg 80%
    21:00 +15°C° 0 mm 1 mps 753 mmHg 81%
    22:00 +13°C° 0 mm 0 mps 753 mmHg 82%
    23:00 +13°C° 0 mm 0 mps 753 mmHg 83%

    28 May, Thursday

    Time Temperature Precipitation Wind Pressure Humidity
    00:00 +12°C° 0 mm 0 mps 752 mmHg 82%
    01:00 +12°C° 0 mm 0 mps 752 mmHg 81%
    02:00 +12°C° 0 mm 0 mps 752 mmHg 80%
    03:00 +12°C° 0 mm 0 mps 752 mmHg 79%
    04:00 +12°C° 0 mm 0 mps 752 mmHg 78%
    05:00 +12°C° 0 mm 0 mps 753 mmHg 76%
    06:00 +15°C° 0 mm 0 mps 753 mmHg 66%
    07:00 +18°C° 0 mm 0 mps 753 mmHg 56%
    08:00 +21°C° 0 mm 0 mps 753 mmHg 46%
    09:00 +24°C° 0 mm 1 mps 753 mmHg 46%
    10:00 +24°C° 0 mm 1 mps 753 mmHg 47%
    11:00 +25°C° 0 mm 2 mps 753 mmHg 48%
    12:00 +25°C° 0 mm 2 mps 752 mmHg 48%
    13:00 +26°C° 0 mm 3 mps 752 mmHg 48%
    14:00 +26°C° 0 mm 4 mps 752 mmHg 48%
    15:00 +26°C° 0 mm 3 mps 752 mmHg 53%
    16:00 +25°C° 0 mm 3 mps 752 mmHg 59%
    17:00 +24°C° 0 mm 3 mps 752 mmHg 64%
    18:00 +20°C° 0 mm 2 mps 753 mmHg 74%
    19:00 +18°C° 0 mm 2 mps 753 mmHg 84%
    20:00 +16°C° 0 mm 1 mps 754 mmHg 94%
    21:00 +16°C° 0 mm 1 mps 754 mmHg 94%
    22:00 +14°C° 0 mm 0 mps 754 mmHg 95%
    23:00 +14°C° 0 mm 0 mps 754 mmHg 95%

    29 May, Friday

    Time Temperature Precipitation Wind Pressure Humidity
    00:00 +13°C° 0 mm 0 mps 754 mmHg 95%
    01:00 +13°C° 0 mm 0 mps 754 mmHg 95%
    02:00 +13°C° 0 mm 0 mps 754 mmHg 95%
    03:00 +13°C° 0 mm 0 mps 755 mmHg 95%
    04:00 +13°C° 0 mm 0 mps 755 mmHg 95%
    05:00 +13°C° 0 mm 0 mps 755 mmHg 95%
    06:00 +16°C° 0 mm 0 mps 755 mmHg 83%
    07:00 +20°C° 0 mm 1 mps 756 mmHg 72%
    08:00 +23°C° 0 mm 1 mps 756 mmHg 61%
    09:00 +25°C° 0 mm 1 mps 756 mmHg 54%
    10:00 +27°C° 0 mm 1 mps 756 mmHg 47%
    11:00 +29°C° 0 mm 1 mps 756 mmHg 40%
    12:00 +29°C° 0 mm 1 mps 756 mmHg 38%
    13:00 +30°C° 0 mm 1 mps 756 mmHg 36%
    14:00 +30°C° 0 mm 1 mps 756 mmHg 34%
    15:00 +28°C° 0 mm 1 mps 756 mmHg 43%
    16:00 +27°C° 0 mm 2 mps 756 mmHg 52%
    17:00 +25°C° 0 mm 2 mps 756 mmHg 61%
    18:00 +23°C° 0 mm 2 mps 756 mmHg 66%
    19:00 +21°C° 0 mm 1 mps 757 mmHg 71%
    20:00 +20°C° 0 mm 1 mps 757 mmHg 76%
    21:00 +19°C° 0 mm 1 mps 757 mmHg 76%
    22:00 +19°C° 0 mm 1 mps 758 mmHg 76%
    23:00 +19°C° 0 mm 1 mps 758 mmHg 76%

    30 May, Saturday

    Time Temperature Precipitation Wind Pressure Humidity
    00:00 +18°C° 0 mm 1 mps 758 mmHg 74%
    01:00 +18°C° 0 mm 1 mps 758 mmHg 72%
    02:00 +18°C° 0 mm 1 mps 758 mmHg 70%
    03:00 +18°C° 0 mm 1 mps 758 mmHg 70%
    04:00 +18°C° 0 mm 1 mps 758 mmHg 70%
    05:00 +18°C° 0 mm 1 mps 758 mmHg 70%
    06:00 +20°C° 0 mm 1 mps 758 mmHg 64%
    07:00 +21°C° 0 mm 1 mps 758 mmHg 58%
    08:00 +23°C° 0 mm 1 mps 758 mmHg 53%
    09:00 +24°C° 0 mm 2 mps 758 mmHg 47%
    10:00 +25°C° 0 mm 3 mps 758 mmHg 42%
    11:00 +27°C° 0 mm 3 mps 758 mmHg 36%
    12:00 +27°C° 0 mm 4 mps 758 mmHg 39%
    13:00 +27°C° 0 mm 4 mps 758 mmHg 42%
    14:00 +27°C° 0 mm 5 mps 758 mmHg 45%
    15:00 +25°C° 0 mm 4 mps 758 mmHg 53%
    16:00 +22°C° 0 mm 4 mps 758 mmHg 62%
    17:00 +20°C° 0 mm 3 mps 758 mmHg 71%
    18:00 +19°C° 0 mm 3 mps 758 mmHg 73%
    19:00 +18°C° 0 mm 4 mps 758 mmHg 76%
    20:00 +18°C° 0 mm 4 mps 758 mmHg 78%
    21:00 +17°C° 0.2 mm 3 mps 758 mmHg 81%
    22:00 +17°C° 0.2 mm 3 mps 759 mmHg 84%
    23:00 +17°C° 0.2 mm 2 mps 759 mmHg 87%
    Show more